ARABSAT 4B

导读

ARABSAT-4B是由欧洲航空防务和航天公司为阿拉伯卫星通信组织制造的第四代商业通信卫星,于2006年11月8日由俄罗斯“质子-M”运载火箭在拜科努尔发射场发射升空,经轨道调整后进入预定轨道。卫星重3.3吨,设计寿命15年,可覆盖北非、中东及西欧部分地区,提供数字卫星电视转播与电话通信服务。

Basic Information
目录编号:
29526
目录名称:
ARABSAT 4B
国际标识:
2006-051A
轨道中心:
EARTH
卫星名称:
ARABSAT 4B
卫星全名:
--
卫星状态:
在轨 (已飞行7159 天)
发射日期:
2006-11-08 UTC
国别 :
(ASCO)
星等 :
--
Orbit Information
数据来源 国际轨道数据 AOE轨道数据
星历时间 2026-06-15T04:06:51+0800
7小时前
查看轨道信息
2026-06-15T05:00:00+0800
6小时前
查看轨道信息
半长轴 42165.317km 42165.401km
偏心率 0.0004718 0.0004747
轨道倾角 1.999° 2.000°
近地点辐角 353.577° 352.887°
升交点赤经 81.146° 81.141°
平近点角 164.562° 178.577°
近地点 35767.286km 35767.248km
远地点 35807.074km 35807.28km
周期 1436.127分钟 1436.131分钟
每日圈数 1.002697 1.002694
Detailed Information
使用方式:
暂无
2D Orbit Map
3D Orbit Map
Orbit Altitude Analysis Chart
Orbit Inclination Analysis Chart
Orbit Comprehensive Analysis Chart
View Comprehensive Chart